Wind_Speed
10 10 10 10 10 10 10 11 11 11 12 12 13 13 13 14 14 15 15 15 15 16 16 16 16 16 16 16 17 17 17 17 17 16 16 15 15 15 14 14 15 15 16
10 10 10 10 10 10 11 11 11 12 13 13 14 15 15 15 15 15 15 16 16 16 16 16 16 16 16 17 17 18 18 17 17 16 16 15 15 15 15 14 15 15 16
10 11 10 10 11 11 12 12 12 13 14 14 15 15 16 15 16 16 16 16 16 16 17 18 17 17 17 17 17 17 17 17 17 17 16 15 15 16 16 15 16 16 17
11 11 11 11 12 13 13 13 14 14 15 16 16 16 17 16 16 17 17 17 17 17 18 18 18 17 17 17 16 17 17 17 17 17 16 16 16 15 16 16 16 17 17
12 12 13 12 13 13 14 14 15 15 16 17 17 17 18 18 18 18 18 17 17 18 18 17 18 18 17 16 16 17 17 17 17 17 16 15 15 16 16 16 16 16 17
13 13 14 14 15 15 15 16 16 16 17 17 18 18 18 19 19 19 19 19 19 19 19 18 18 17 17 17 17 17 17 17 17 16 16 16 16 17 17 16 17 17 17
14 15 15 16 16 16 17 17 17 17 18 18 19 19 19 19 19 20 20 20 20 20 20 20 19 18 17 17 17 17 17 17 17 17 16 17 17 18 18 18 18 18 18
15 16 17 17 17 17 17 18 18 18 19 19 19 19 19 19 19 19 19 19 19 20 20 20 20 19 18 18 19 19 19 19 19 18 18 18 19 19 19 19 19 19 19
16 17 17 18 18 18 18 18 19 19 19 19 19 19 19 19 19 19 20 19 20 20 20 21 21 20 20 20 20 20 21 21 21 20 20 20 20 20 20 20 20 20 20
17 17 18 19 20 20 19 19 19 20 19 19 20 20 20 20 20 20 20 20 20 21 21 21 21 21 22 22 21 21 21 22 22 21 21 21 21 21 21 21 22 22 22
18 18 19 20 21 21 21 21 21 21 20 20 20 21 21 21 21 21 21 21 22 22 21 21 22 22 23 23 23 23 23 23 22 22 22 22 22 22 22 22 23 23 23
19 19 20 20 21 21 22 22 23 22 22 22 22 22 22 22 22 22 22 23 23 23 23 23 23 24 24 24 24 24 24 24 23 23 23 23 24 24 24 24 24 24 24
21 21 22 22 22 22 22 23 24 24 24 24 24 24 23 23 23 24 24 24 24 24 24 24 24 24 24 24 24 25 25 25 25 25 24 24 25 25 26 26 26 25 25
22 23 23 24 23 23 24 24 25 25 26 26 26 25 25 25 24 24 24 25 25 26 25 25 25 25 25 25 26 26 26 26 26 26 26 26 26 26 26 27 27 27 27
23 24 24 25 25 25 26 26 27 27 27 27 28 27 27 26 26 25 25 25 26 26 26 26 26 26 26 27 27 27 27 27 26 26 26 27 27 27 27 27 27 27 28
24 24 25 26 26 27 28 28 28 29 29 29 29 29 27 27 27 27 27 27 27 27 27 28 28 28 28 27 27 27 27 26 26 26 26 26 27 27 27 27 27 27 28
25 26 26 27 28 28 29 29 29 29 30 30 30 29 28 28 28 27 28 28 28 28 28 29 29 29 29 29 28 28 28 27 27 27 27 27 27 27 27 27 26 26 26
27 27 28 28 29 29 29 30 30 30 30 30 30 29 28 28 28 28 28 29 29 29 29 29 30 30 29 29 29 29 29 28 28 27 27 27 26 27 27 26 26 26 26
29 29 29 29 29 29 29 29 29 29 29 28 28 28 28 28 28 28 28 28 29 29 29 29 29 30 30 30 30 30 30 29 28 27 27 27 27 27 27 27 26 26 26
30 30 30 30 29 29 29 29 29 29 28 28 28 28 28 28 28 28 28 28 29 28 28 29 29 29 30 30 30 30 31 30 29 28 28 28 27 27 27 27 27 27 26
31 31 30 30 30 29 29 29 29 29 29 29 29 28 28 28 28 28 27 28 28 29 29 29 29 29 29 30 30 30 30 29 29 28 28 28 28 27 27 27 27 27 27
31 31 31 30 30 30 30 29 29 30 30 29 29 29 29 29 29 29 28 29 29 29 29 29 29 28 28 29 29 29 29 29 28 28 28 28 28 27 28 28 27 27 27
30 30 30 30 30 30 30 29 29 29 29 30 30 29 30 30 30 30 29 29 30 29 29 29 28 27 28 28 29 29 29 29 28 28 28 27 28 28 27 27 27 27 28
30 30 30 29 30 30 30 30 29 29 30 30 30 30 30 30 30 30 30 30 30 30 30 29 29 29 29 29 29 29 29 29 29 29 28 28 28 27 27 27 27 27 27
30 30 30 30 30 30 29 29 30 30 30 31 31 31 31 30 30 30 30 30 30 30 30 30 30 30 30 30 30 30 29 29 29 29 28 28 29 28 28 28 27 27 26
30 30 30 30 29 29 29 30 30 31 31 31 31 31 31 31 31 31 30 31 30 30 30 30 30 30 30 29 30 30 30 30 29 29 28 29 28 28 28 28 27 27 27
Wind_Direction
255 254 256 262 265 270 273 276 276 277 279 279 279 279 280 280 280 280 280 280 282 284 287 286 287 289 290 290 288 288 286 283 283 284 283 282 282 279 274 270 268 266 264
260 260 262 265 267 269 271 273 276 278 279 279 280 281 281 280 281 281 278 277 279 282 284 287 288 289 291 290 288 287 285 285 283 283 281 280 278 274 270 271 269 264 263
265 266 264 267 270 272 274 275 278 280 279 280 282 282 283 282 281 279 279 277 278 280 281 284 287 288 289 289 288 286 285 286 285 283 279 278 278 272 268 269 271 268 265
265 267 267 269 273 275 277 279 281 282 281 282 283 284 283 283 282 279 279 279 277 280 282 282 287 288 288 287 289 287 286 285 284 281 279 276 276 274 269 270 273 272 269
263 263 264 267 274 277 279 281 283 284 284 285 285 285 283 282 282 282 280 280 278 279 280 283 285 287 287 286 287 288 286 285 285 281 280 279 277 276 272 270 274 275 273
263 262 263 268 275 278 283 284 286 286 287 287 286 285 284 283 282 280 278 278 277 278 280 281 283 284 285 285 286 287 286 285 285 285 283 281 281 280 278 276 275 277 276
270 268 269 271 276 279 282 288 285 285 285 285 285 285 283 283 282 279 277 279 278 278 278 279 279 281 282 282 283 284 284 284 284 284 283 281 283 283 282 279 277 277 278
274 274 274 274 275 278 281 284 285 284 283 284 284 284 284 283 283 281 279 279 278 279 280 278 276 276 278 279 281 281 281 282 282 282 283 281 281 281 282 281 278 276 277
278 277 276 276 277 278 280 283 285 286 286 285 285 285 283 283 283 282 282 281 280 279 279 278 276 275 277 278 278 278 279 280 280 280 281 281 281 280 280 279 279 277 277
281 279 278 279 280 281 282 284 285 287 287 287 286 285 284 283 282 281 281 282 281 280 279 278 276 277 278 277 277 277 279 281 281 279 279 279 279 279 279 278 277 277 277
281 281 281 283 283 283 283 284 285 285 286 287 286 285 284 282 280 279 280 280 280 279 279 278 277 277 277 278 276 276 277 279 280 279 278 278 278 278 279 279 278 278 279
283 282 284 285 286 286 285 284 284 284 284 285 286 284 284 282 280 279 279 280 280 279 278 278 278 278 278 278 277 277 277 277 278 279 279 279 278 278 278 278 278 278 278
284 284 285 285 285 286 284 283 284 283 283 283 285 285 284 282 280 278 278 278 279 279 279 279 279 278 278 279 278 278 278 277 277 278 277 278 279 278 277 277 278 278 278
288 286 285 285 285 285 284 283 283 283 283 283 283 284 284 282 278 275 276 276 277 279 279 279 279 279 279 279 279 279 280 279 278 278 278 278 278 278 278 278 278 278 278
292 289 287 286 285 284 285 283 284 283 284 284 284 283 282 281 278 276 275 275 277 278 278 279 279 280 280 279 279 279 279 279 279 279 279 278 278 278 279 279 279 278 278
292 290 289 287 286 285 284 283 283 285 285 284 284 282 281 280 278 276 276 275 276 277 278 278 279 280 279 279 279 279 278 279 279 281 280 280 279 279 279 279 278 278 279
291 290 289 289 287 287 285 284 284 284 284 284 282 282 280 279 278 277 276 276 276 276 277 278 279 279 279 278 278 278 277 278 278 280 280 280 280 279 278 279 279 280 280
292 291 290 289 288 286 285 284 284 284 283 283 282 280 278 278 277 276 277 276 276 277 277 278 279 279 278 279 279 278 277 277 277 278 278 279 279 280 279 280 280 280 280
293 293 292 291 289 287 286 286 284 284 284 283 282 280 278 278 278 278 277 276 276 278 278 278 279 278 278 278 278 278 278 278 277 277 277 278 278 280 280 279 280 280 280
293 294 293 291 290 288 287 287 285 284 283 282 282 281 280 279 279 280 278 277 277 278 280 279 278 279 279 278 278 277 278 277 275 275 276 277 277 279 280 280 280 280 281
292 293 292 291 290 289 288 287 285 283 281 281 282 281 281 280 280 280 279 278 279 279 280 280 279 279 278 278 278 278 277 277 275 274 275 276 277 277 278 279 279 280 280
292 292 292 291 290 289 288 287 285 283 281 281 281 280 280 281 281 281 280 280 279 280 280 280 279 279 278 278 279 278 276 276 275 274 275 275 275 275 277 278 279 279 279
294 294 292 291 290 290 289 287 285 283 281 281 281 280 278 279 279 279 279 280 280 281 282 281 279 279 279 279 279 278 277 277 276 275 274 274 274 275 275 276 278 279 280
296 295 293 292 291 290 289 287 285 284 283 283 281 281 279 278 278 278 279 279 280 280 282 282 280 279 279 279 279 279 278 278 278 276 275 274 274 275 275 276 278 281 281
297 295 294 293 292 291 289 288 287 287 286 284 282 281 280 279 278 277 277 278 279 279 280 280 280 280 279 279 279 278 276 277 279 277 275 274 274 275 275 276 277 280 282
296 295 294 293 292 292 291 290 290 289 288 286 283 282 280 279 277 276 276 277 278 279 279 280 280 280 278 278 279 278 276 276 276 276 275 274 275 274 275 277 278 280 282
Height
5826 5827 5827 5827 5828 5827 5827 5827 5826 5826 5825 5825 5824 5824 5823 5823 5823 5822 5822 5821 5821 5820 5820 5819 5819 5818 5817 5817 5816 5815 5814 5813 5812 5810 5809 5807 5806 5805 5805 5805 5804 5804 5804
5824 5824 5824 5825 5825 5825 5824 5824 5823 5823 5822 5821 5821 5820 5820 5819 5819 5818 5818 5817 5817 5816 5816 5815 5815 5814 5813 5812 5812 5810 5809 5808 5807 5806 5805 5804 5804 5802 5801 5801 5800 5800 5800
5822 5822 5822 5822 5822 5822 5821 5821 5820 5819 5819 5818 5817 5816 5816 5815 5815 5814 5814 5813 5812 5812 5811 5811 5810 5809 5809 5808 5807 5806 5805 5804 5803 5802 5801 5800 5799 5798 5798 5797 5796 5796 5796
5819 5819 5819 5819 5819 5818 5818 5817 5817 5816 5815 5814 5813 5812 5812 5811 5810 5809 5809 5808 5807 5807 5807 5806 5806 5805 5804 5803 5803 5802 5801 5800 5798 5797 5796 5795 5794 5794 5794 5793 5792 5792 5791
5816 5816 5816 5816 5815 5815 5814 5813 5812 5811 5810 5809 5808 5808 5807 5806 5806 5805 5804 5803 5803 5802 5802 5801 5801 5800 5799 5799 5798 5797 5796 5795 5794 5793 5792 5790 5790 5789 5789 5789 5788 5788 5787
5813 5813 5812 5812 5811 5811 5810 5809 5808 5807 5806 5805 5804 5803 5802 5801 5801 5800 5800 5799 5798 5798 5797 5796 5796 5795 5795 5794 5793 5792 5792 5791 5790 5788 5787 5786 5786 5785 5784 5784 5784 5783 5782
5810 5809 5809 5808 5808 5807 5806 5805 5804 5803 5801 5800 5799 5798 5797 5796 5795 5795 5794 5794 5793 5793 5792 5792 5791 5791 5790 5789 5789 5788 5787 5786 5785 5784 5783 5782 5781 5780 5780 5779 5779 5778 5778
5807 5806 5805 5804 5803 5802 5801 5800 5799 5798 5797 5795 5794 5793 5792 5791 5790 5789 5789 5788 5788 5788 5787 5786 5786 5786 5785 5784 5784 5783 5782 5781 5780 5779 5778 5777 5776 5775 5775 5774 5773 5773 5773
5803 5802 5801 5800 5799 5798 5796 5795 5794 5793 5791 5790 5789 5788 5786 5786 5785 5784 5783 5783 5783 5782 5782 5781 5781 5780 5780 5779 5778 5778 5777 5776 5775 5774 5773 5772 5771 5770 5769 5768 5768 5768 5767
5798 5797 5796 5795 5794 5792 5791 5790 5789 5787 5786 5784 5783 5782 5781 5780 5780 5779 5778 5778 5777 5776 5776 5775 5775 5774 5774 5773 5772 5772 5771 5770 5769 5768 5767 5766 5765 5764 5763 5762 5762 5761 5761
5793 5792 5791 5790 5788 5787 5786 5784 5783 5782 5781 5779 5778 5777 5775 5775 5774 5773 5772 5772 5771 5771 5770 5769 5769 5768 5768 5767 5766 5765 5764 5763 5762 5761 5760 5759 5758 5758 5757 5756 5755 5754 5754
5789 5787 5786 5784 5783 5781 5780 5779 5777 5776 5775 5774 5772 5771 5770 5769 5768 5767 5766 5766 5765 5765 5764 5763 5762 5762 5761 5760 5759 5758 5757 5756 5755 5754 5753 5752 5751 5751 5750 5749 5748 5747 5747
5784 5782 5781 5779 5777 5776 5774 5773 5771 5770 5769 5767 5766 5765 5763 5762 5761 5760 5760 5759 5759 5758 5757 5756 5756 5755 5754 5753 5752 5751 5750 5749 5748 5747 5746 5745 5744 5743 5742 5741 5740 5740 5739
5778 5776 5775 5773 5771 5770 5768 5767 5765 5763 5762 5760 5759 5758 5757 5755 5754 5754 5753 5752 5752 5751 5750 5749 5749 5748 5747 5746 5745 5744 5743 5741 5740 5739 5738 5737 5736 5735 5734 5733 5732 5732 5731
5772 5770 5768 5767 5765 5764 5762 5760 5758 5757 5755 5753 5752 5751 5749 5748 5747 5746 5746 5745 5744 5744 5743 5742 5741 5740 5739 5738 5737 5736 5735 5733 5732 5731 5730 5729 5728 5727 5726 5725 5724 5723 5722
5766 5764 5762 5760 5758 5756 5755 5753 5751 5749 5748 5746 5744 5743 5741 5740 5739 5738 5738 5737 5736 5736 5735 5734 5733 5732 5731 5730 5729 5728 5727 5725 5724 5723 5722 5721 5720 5719 5718 5716 5715 5714 5713
5759 5757 5755 5752 5750 5749 5747 5745 5743 5741 5739 5738 5736 5735 5733 5732 5731 5730 5729 5729 5728 5727 5727 5726 5725 5723 5723 5722 5721 5720 5719 5718 5717 5715 5714 5713 5712 5711 5710 5708 5707 5706 5705
5752 5749 5747 5745 5743 5740 5738 5736 5734 5732 5731 5729 5727 5726 5725 5724 5723 5722 5721 5720 5719 5719 5718 5717 5716 5715 5714 5713 5712 5711 5710 5709 5708 5707 5706 5705 5704 5703 5702 5701 5699 5698 5697
5744 5741 5739 5736 5734 5731 5729 5727 5725 5724 5722 5720 5719 5717 5716 5716 5715 5714 5713 5712 5711 5710 5709 5708 5707 5706 5705 5704 5703 5702 5701 5701 5700 5699 5698 5697 5696 5694 5693 5693 5692 5690 5689
5735 5733 5730 5728 5725 5723 5721 5719 5717 5715 5713 5711 5710 5709 5708 5707 5706 5705 5704 5703 5702 5701 5700 5699 5698 5697 5696 5695 5694 5693 5692 5692 5691 5690 5689 5688 5687 5686 5685 5684 5683 5682 5681
5727 5724 5722 5719 5717 5714 5712 5710 5708 5706 5704 5703 5701 5700 5699 5698 5698 5697 5696 5695 5694 5693 5692 5691 5689 5688 5687 5686 5685 5683 5683 5682 5682 5681 5680 5679 5678 5677 5676 5675 5674 5673 5672
5718 5716 5713 5711 5708 5706 5703 5701 5699 5697 5695 5694 5693 5692 5691 5690 5689 5688 5687 5686 5685 5684 5683 5682 5680 5679 5678 5677 5676 5675 5674 5673 5673 5672 5671 5670 5670 5669 5668 5667 5666 5665 5664
5710 5708 5705 5702 5700 5697 5695 5693 5690 5688 5687 5685 5684 5683 5682 5681 5680 5679 5678 5677 5676 5675 5674 5673 5672 5671 5669 5668 5667 5666 5665 5664 5663 5663 5662 5662 5661 5660 5659 5658 5657 5656 5655
5702 5699 5696 5694 5692 5689 5686 5684 5682 5680 5678 5676 5675 5673 5672 5671 5670 5669 5669 5668 5667 5666 5665 5664 5663 5662 5661 5660 5659 5657 5656 5655 5654 5654 5653 5653 5652 5651 5651 5650 5649 5647 5646
5694 5691 5688 5686 5683 5680 5678 5675 5673 5671 5669 5667 5666 5664 5663 5662 5661 5660 5659 5658 5657 5656 5655 5654 5654 5653 5652 5651 5649 5648 5648 5647 5646 5644 5644 5643 5643 5643 5642 5641 5640 5639 5638
5685 5682 5679 5677 5674 5672 5669 5666 5664 5662 5660 5658 5656 5655 5653 5652 5651 5650 5649 5648 5648 5647 5646 5645 5644 5643 5642 5641 5640 5639 5638 5637 5636 5636 5635 5635 5634 5634 5633 5633 5632 5631 5630